Regional Weather Roundup
Issued by NWS

Home | Current Version | Previous Version | Graphics & Text | Print | Product List | Glossary On
Versions: 1 2 3 4 5 6 7 8 9 10 11 12 13 14 15 16 17 18 19 20 21 22 23 24 25 26 27 28 29 30 31 32 33 34 35 36 37 38 39 40 41 42 43 44 45 46 47 48 49 50
000
ASUS43 KLMK 300410
RWRKY
KENTUCKY REGIONAL WEATHER ROUNDUP
NATIONAL WEATHER SERVICE LOUISVILLE KY
1200 AM EDT WED JUL 30 2014

NOTE "FAIR" INDICATES FEW OR NO CLOUDS BELOW 12,000 FEET
WITH NO SIGNIFICANT WEATHER AND/OR OBSTRUCTIONS TO VISIBILITY.

KYZ001>023-026-027-061>063-070>075-300500-
WESTERN AND SOUTH CENTRAL KENTUCKY

CITY           SKY/WX    TMP DP  RH WIND       PRES   REMARKS
PADUCAH        CLEAR     61  56  83 SW3       30.09R
HENDERSON      CLEAR     59  55  88 CALM      30.08R
OWENSBORO      CLEAR     62  57  83 CALM      30.09R
HOPKINSVILLE   CLEAR     65  54  67 CALM      30.10R
BOWLING GREEN  CLEAR     64  55  72 CALM      30.09S
GLASGOW        CLEAR     60  60  97 CALM      30.09F
$$

KYZ024-025-028>034-038-045-046-053-300500-
NORTH CENTRAL KENTUCKY

CITY           SKY/WX    TMP DP  RH WIND       PRES   REMARKS
LOUISVILLE/SDF CLEAR     69  59  70 VRB3      30.07S
LOUISVILLE/LOU CLEAR     67  58  72 CALM      30.07F
FORT KNOX      CLEAR     60  60  98 CALM      30.08S
$$

KYZ035>037-039>044-047>052-055>060-089>105-300500-
NORTHEAST KENTUCKY

CITY           SKY/WX    TMP DP  RH WIND       PRES   REMARKS
LEXINGTON      CLEAR     59  54  83 S3        30.09S
COVINGTON      PTCLDY    63  56  78 SW7       30.06S
FRANKFORT      CLEAR     60  57  89 SW5       30.07F
$$

KYZ054-064>069-076>088-106>120-300500-
SOUTHEAST KENTUCKY

CITY           SKY/WX    TMP DP  RH WIND       PRES   REMARKS
JACKSON        CLEAR     60  54  80 CALM      30.10S
LONDON         CLEAR     58  54  86 CALM      30.12R
SOMERSET       CLEAR     57  55  94 CALM      30.12S
MIDDLESBORO    CLEAR     57  54  91 CALM      30.12S
MONTICELLO     CLEAR     56  55  96 CALM      30.12S
$$




USA.gov is the U.S. government's official web portal to all federal, state and local government web resources and services.